Wind_Speed
18 20 18 18 23 23 20 26 21 21 22 20 20 16 15 14 13 13 12 12 10 9 9 8 6 6 8 9 9 8 8 7 4 2 1 3 5 8 10 12 15 17 20 22 28 33 38 40 43
21 21 20 17 18 23 24 28 21 22 24 23 22 17 15 14 15 14 13 13 11 10 9 8 7 8 10 11 10 9 8 6 4 2 1 4 6 8 10 12 15 17 21 24 30 36 39 41 42
22 22 22 18 14 21 26 28 25 25 24 23 23 20 17 16 17 14 14 13 11 11 11 10 8 10 12 12 11 10 8 5 4 2 2 4 7 9 11 15 16 18 21 25 31 37 40 40 44
22 23 22 18 16 19 27 30 30 27 24 26 24 22 19 19 18 15 16 14 13 11 13 12 10 12 14 13 12 11 8 7 5 4 4 5 7 9 11 16 20 22 22 25 33 38 40 42 46
22 22 21 22 19 22 25 31 34 29 27 27 26 25 22 20 21 18 17 16 15 14 14 14 12 14 15 14 13 12 10 8 6 6 6 7 6 7 9 15 22 24 24 26 34 39 41 44 48
24 23 22 24 23 22 24 26 29 31 31 31 27 26 24 21 24 22 19 17 17 16 16 16 14 16 17 16 15 14 13 9 7 8 6 4 4 7 10 15 22 25 25 27 34 39 41 44 45
26 24 22 23 22 23 29 27 26 30 32 33 28 26 26 23 24 25 21 18 18 18 18 17 17 19 19 17 17 16 15 11 8 6 4 1 3 7 11 16 22 25 25 27 33 36 39 42 41
28 25 22 23 25 25 32 28 28 27 29 31 31 27 28 27 25 27 24 20 18 20 20 19 18 21 21 19 19 18 17 14 9 6 5 4 5 7 10 16 22 25 26 26 31 36 37 39 38
29 27 23 26 29 28 33 29 29 27 27 26 27 31 30 31 29 27 27 25 20 21 22 21 20 23 24 22 22 20 19 16 11 7 4 2 5 8 11 15 21 25 25 26 29 34 35 36 36
32 29 26 31 35 33 35 33 32 30 29 26 26 30 32 32 33 29 29 27 24 23 25 23 23 26 26 25 24 23 21 17 12 7 4 1 6 8 10 14 19 24 24 25 28 30 32 33 34
36 32 32 33 36 37 37 36 34 34 28 28 29 31 33 34 34 33 31 30 26 24 27 25 24 27 29 28 27 25 24 19 13 9 4 2 4 8 11 14 17 23 24 23 26 27 30 30 32
41 37 36 35 37 39 39 40 36 34 28 30 31 31 31 33 33 36 34 35 30 27 28 28 26 29 32 31 29 27 25 22 16 11 5 2 3 8 11 14 16 21 23 23 23 25 27 28 27
44 43 42 41 39 41 40 39 40 40 33 34 33 33 32 32 33 34 38 35 33 29 30 30 29 30 34 33 32 29 27 23 19 13 7 2 3 7 11 14 15 18 21 21 21 23 23 25 24
48 47 47 46 45 45 44 40 44 41 38 37 39 37 34 34 33 35 38 35 35 33 33 33 32 31 34 36 34 32 30 26 21 15 10 4 3 6 9 13 14 16 20 20 21 21 20 22 21
52 52 52 53 51 51 48 44 42 45 43 42 42 42 36 34 37 33 35 40 38 37 39 36 34 33 35 37 37 35 32 29 25 19 14 8 5 6 9 11 14 14 17 19 19 18 19 18 20
56 57 56 57 56 56 53 50 48 50 49 46 45 47 42 37 37 37 37 41 42 41 40 39 37 35 36 39 39 37 35 32 28 23 18 12 8 8 9 11 12 13 15 18 18 18 16 15 17
60 60 60 60 61 60 60 55 54 52 50 49 46 47 49 41 38 39 37 39 44 44 43 43 40 37 37 41 40 39 37 34 30 26 22 16 11 10 10 10 11 12 13 15 17 18 15 14 13
61 62 62 63 62 63 63 61 61 56 53 53 52 47 51 46 42 40 41 40 43 46 46 46 44 41 39 41 43 41 39 36 33 29 26 20 16 12 11 10 11 11 11 13 15 16 15 13 12
61 63 64 62 66 69 65 67 65 63 57 55 54 51 51 50 46 43 42 43 43 47 49 48 46 44 41 39 42 41 40 40 37 33 29 23 19 15 13 12 11 10 11 10 13 15 15 13 11
54 58 60 63 65 69 71 68 64 66 61 59 57 54 53 53 50 48 45 45 45 45 49 51 49 47 44 41 41 44 45 43 40 34 28 24 21 17 15 13 12 11 11 9 11 13 15 14 11
50 53 56 60 63 64 71 73 69 68 65 60 60 56 56 57 53 51 52 48 47 47 47 53 51 49 47 44 44 47 48 44 38 33 30 27 23 19 16 15 13 12 11 11 9 11 13 14 11
48 49 51 53 58 64 65 77 72 72 67 63 63 62 60 59 57 54 55 54 49 48 50 52 54 51 51 48 46 45 45 43 39 40 38 29 24 20 18 17 14 13 13 13 10 9 11 13 12
49 51 52 54 57 63 66 74 70 69 69 65 65 66 64 63 61 59 57 58 56 52 52 52 56 55 54 51 48 47 46 45 45 45 39 33 26 22 21 19 17 15 14 13 11 10 10 10 12
50 51 53 55 58 63 66 70 74 67 71 71 69 68 67 67 65 61 62 61 61 57 55 54 56 59 56 54 52 49 46 44 46 44 39 35 30 26 25 22 19 18 16 14 13 9 10 9 11
47 49 53 56 58 63 62 70 70 67 73 78 74 70 71 70 69 65 63 66 64 61 57 56 55 59 59 57 55 51 48 47 47 46 42 39 35 30 28 26 23 20 18 16 14 9 10 8 10
51 51 50 52 54 59 58 69 66 68 70 77 77 76 74 72 72 71 67 67 67 67 63 60 55 56 61 58 57 54 52 49 50 47 44 42 39 36 32 29 25 21 21 18 15 11 10 9 9
48 46 40 43 45 49 53 54 59 58 64 72 77 83 81 76 71 73 72 70 70 68 67 62 60 58 61 60 58 56 53 52 51 49 46 45 42 39 34 31 27 24 23 19 17 12 11 10 8
44 41 32 30 37 36 35 38 43 26 27 45 62 73 80 78 74 72 72 72 72 72 68 65 60 58 61 62 60 58 55 53 53 52 49 47 45 41 37 34 31 28 25 22 19 14 12 11 9
33 31 28 31 30 34 42 39 26 23 27 29 31 34 64 78 76 73 73 72 72 73 70 66 61 60 60 65 62 60 58 56 55 53 51 50 47 44 40 37 34 31 28 25 21 16 13 12 10
29 27 30 32 30 30 39 32 33 30 36 24 32 30 35 60 74 71 73 72 74 73 71 66 63 62 60 64 65 62 61 59 57 54 52 51 49 46 43 41 38 35 31 26 23 19 16 13 12
Wind_Direction
275 276 277 259 238 237 243 249 245 246 244 240 245 256 264 254 233 223 229 226 234 246 240 238 244 242 208 180 172 153 144 139 135 120 48 27 34 22 18 13 1 357 352 350 350 347 348 345 343
261 267 273 271 254 236 239 247 250 248 246 242 243 255 258 245 227 225 230 227 228 235 234 234 238 229 203 186 171 156 154 149 144 156 60 50 38 31 22 7 357 355 350 355 353 351 350 348 346
258 261 270 269 264 241 242 246 246 247 249 248 255 256 264 241 226 223 233 227 222 226 226 226 229 216 202 190 171 163 161 162 164 163 109 71 52 42 24 12 1 358 355 356 356 355 353 350 348
255 257 263 269 254 248 242 240 240 241 245 249 247 251 259 243 228 219 230 234 228 226 220 220 217 210 203 191 174 167 169 175 173 154 121 90 67 39 28 16 13 5 360 357 359 357 355 356 354
255 252 256 268 260 248 248 245 243 243 245 248 245 247 250 243 235 220 228 238 235 223 216 216 210 205 204 193 178 171 175 174 162 143 132 103 55 32 18 10 12 7 3 1 1 359 359 3 3
254 247 244 259 264 258 253 252 249 245 243 246 243 244 247 241 236 231 227 241 240 224 212 212 207 201 203 198 184 179 179 172 151 148 139 97 43 20 8 7 10 7 5 6 3 3 6 8 8
255 251 245 253 262 260 252 252 252 248 244 246 249 244 243 243 237 237 234 240 245 228 212 211 206 201 202 201 189 188 186 178 152 154 146 92 18 357 3 6 9 8 8 8 6 7 12 14 14
254 251 246 254 260 257 257 259 258 256 257 248 246 244 241 241 239 238 237 237 245 234 215 211 206 201 200 200 194 195 192 187 168 152 118 77 34 4 1 7 9 9 10 10 7 10 15 17 20
258 252 241 251 254 252 262 260 260 256 255 254 251 245 238 238 240 239 236 239 237 234 218 216 208 202 200 200 197 199 198 195 186 183 156 56 10 7 2 6 9 11 10 13 9 12 18 21 22
259 257 249 246 250 251 259 261 261 258 256 254 248 245 242 234 234 237 240 235 239 231 220 219 213 205 202 201 200 201 202 201 199 196 168 80 16 5 5 7 11 12 10 14 10 11 21 26 21
262 257 253 247 248 247 254 260 262 264 260 259 254 249 242 240 233 233 234 234 236 234 221 218 217 210 205 202 202 204 206 206 205 206 186 110 11 8 8 7 13 13 11 13 11 10 22 28 22
263 260 255 254 251 247 246 251 256 260 261 256 256 256 251 246 238 235 232 231 228 228 224 220 221 216 209 206 204 206 208 210 209 209 200 137 18 8 8 6 13 14 9 12 11 11 21 30 26
263 262 260 256 254 251 248 246 252 251 248 251 251 252 251 247 247 236 234 231 227 223 224 224 221 220 213 209 207 209 210 210 209 212 213 206 359 359 3 3 6 16 9 11 11 13 20 32 29
265 264 261 259 255 253 251 245 241 246 245 245 249 248 247 246 246 239 231 233 228 223 219 223 224 221 217 213 210 211 213 211 214 217 221 231 307 343 356 358 360 13 10 8 11 13 19 31 32
262 260 261 258 257 254 251 249 250 248 244 246 248 250 246 246 246 245 235 230 227 225 219 219 224 223 218 218 213 212 216 217 222 224 227 230 271 316 340 350 353 6 11 6 10 10 17 28 32
261 261 259 259 258 255 252 248 247 249 250 248 246 250 245 241 245 243 239 230 226 224 223 220 221 224 220 218 218 214 216 219 224 229 232 233 253 288 315 337 346 354 9 4 6 6 12 22 30
263 260 257 256 257 255 254 248 249 248 248 248 248 250 255 248 245 244 241 237 230 222 222 221 221 221 223 218 217 217 217 220 225 230 232 238 246 267 292 319 335 342 2 3 1 3 6 14 23
263 262 259 256 253 255 251 251 249 246 245 246 248 244 250 250 247 246 242 237 235 227 222 222 220 221 223 223 217 218 219 221 225 229 234 240 246 253 275 298 318 331 348 359 357 359 359 10 15
263 261 259 258 258 254 252 249 249 250 246 245 246 246 246 249 245 244 244 239 237 234 223 222 221 223 221 225 222 219 221 221 224 226 233 239 245 246 261 280 301 318 331 355 354 355 353 360 7
270 267 264 260 258 258 256 248 248 250 247 245 243 243 245 246 244 242 242 243 239 236 230 223 221 222 222 220 222 220 221 221 224 227 231 238 242 244 252 267 286 304 319 336 352 350 348 349 358
277 277 275 272 266 265 261 250 245 245 247 243 246 241 240 243 241 240 239 238 239 238 232 226 222 221 222 219 220 222 221 222 225 229 234 234 236 241 247 259 273 290 301 313 338 346 344 343 347
273 273 274 274 274 273 270 260 245 245 244 247 243 242 238 239 240 237 238 238 236 235 234 225 223 220 222 220 219 221 222 220 220 225 229 231 234 237 243 252 263 275 285 300 320 337 341 340 338
282 280 277 274 271 269 268 268 248 247 246 242 243 242 238 235 237 236 236 235 235 233 233 229 222 219 221 219 219 218 219 218 221 225 228 230 234 235 240 246 256 264 274 288 304 320 330 332 330
289 287 284 279 275 271 269 267 259 254 251 245 239 241 241 236 235 234 233 233 234 232 231 229 226 219 218 219 219 218 216 218 221 223 226 230 232 231 237 242 250 257 265 277 288 302 313 321 326
306 304 295 285 277 272 269 266 265 258 254 252 243 238 238 240 235 232 232 232 232 230 231 229 226 221 218 217 218 218 216 214 219 220 219 223 228 228 232 237 242 250 258 264 275 284 299 313 319
315 311 301 291 284 276 269 266 260 254 248 251 248 244 238 236 235 232 228 230 229 228 225 226 223 224 218 218 217 217 216 214 217 218 217 220 225 228 231 237 238 244 252 258 266 272 287 296 311
321 309 303 294 284 282 273 268 259 256 250 243 244 242 238 235 230 229 225 223 228 228 228 224 220 218 218 217 218 217 217 215 217 217 216 218 222 225 227 232 234 237 246 251 257 259 274 276 301
319 308 296 290 295 296 290 288 288 285 266 249 245 241 238 237 233 228 227 222 224 225 224 225 223 219 217 215 216 216 217 216 217 217 215 218 220 223 224 229 232 234 240 243 249 252 261 267 285
302 285 276 275 288 292 295 297 324 273 273 225 221 229 241 233 231 228 226 222 222 225 225 222 220 219 219 216 213 215 216 216 218 218 216 218 220 222 222 226 230 232 235 237 242 247 253 260 273
296 269 265 277 278 280 286 292 308 300 279 253 202 207 224 237 228 224 224 220 219 222 224 224 220 217 215 218 213 213 213 215 217 217 217 219 220 222 222 226 229 231 234 234 236 240 246 249 263
Height
5791 5789 5788 5788 5792 5791 5793 5790 5791 5793 5794 5795 5797 5798 5800 5800 5801 5805 5805 5806 5807 5809 5810 5812 5812 5813 5814 5815 5815 5816 5816 5817 5818 5818 5818 5818 5817 5816 5814 5812 5809 5806 5803 5800 5794 5788 5780 5772 5764
5787 5787 5786 5785 5787 5788 5788 5787 5790 5790 5790 5791 5793 5796 5797 5798 5798 5800 5803 5804 5806 5807 5809 5811 5812 5813 5814 5814 5815 5816 5817 5818 5819 5819 5818 5818 5817 5815 5813 5811 5809 5805 5802 5797 5791 5784 5776 5769 5760
5784 5784 5784 5782 5783 5784 5784 5785 5787 5787 5788 5790 5792 5795 5796 5797 5796 5798 5801 5802 5804 5805 5807 5809 5811 5812 5814 5814 5815 5816 5817 5818 5818 5818 5818 5818 5817 5815 5814 5811 5808 5805 5800 5796 5789 5781 5774 5766 5756
5779 5781 5782 5780 5780 5779 5779 5779 5781 5783 5786 5787 5789 5792 5795 5796 5795 5796 5799 5801 5802 5803 5805 5807 5809 5811 5813 5814 5815 5816 5817 5818 5818 5818 5818 5818 5817 5816 5813 5811 5808 5803 5799 5794 5787 5780 5772 5764 5753
5774 5776 5777 5777 5777 5774 5773 5774 5777 5780 5782 5783 5785 5789 5791 5794 5794 5793 5797 5799 5800 5801 5803 5805 5807 5810 5812 5814 5815 5815 5817 5818 5818 5818 5818 5818 5817 5815 5813 5810 5807 5803 5798 5793 5786 5779 5770 5762 5754
5770 5771 5773 5773 5772 5771 5769 5769 5773 5776 5777 5778 5780 5785 5788 5789 5791 5792 5793 5797 5798 5799 5801 5803 5806 5808 5811 5813 5814 5815 5817 5818 5818 5818 5818 5818 5817 5814 5812 5810 5807 5802 5797 5791 5786 5778 5771 5763 5754
5765 5767 5768 5768 5768 5767 5762 5765 5769 5769 5772 5775 5779 5782 5785 5786 5787 5790 5791 5793 5795 5797 5798 5801 5803 5806 5809 5812 5813 5815 5816 5817 5818 5818 5818 5818 5816 5814 5812 5810 5806 5801 5797 5791 5786 5779 5773 5764 5754
5759 5761 5764 5764 5763 5763 5757 5761 5763 5765 5767 5770 5773 5778 5779 5782 5783 5785 5788 5789 5791 5794 5796 5798 5801 5803 5806 5809 5812 5814 5815 5816 5817 5818 5818 5817 5815 5813 5811 5809 5806 5801 5796 5791 5786 5780 5774 5766 5758
5751 5754 5758 5758 5756 5756 5752 5756 5758 5760 5761 5764 5767 5770 5773 5775 5778 5780 5783 5786 5787 5790 5793 5795 5798 5800 5803 5806 5810 5812 5814 5815 5816 5817 5817 5816 5815 5813 5811 5808 5805 5801 5797 5791 5787 5781 5776 5768 5762
5743 5748 5751 5749 5748 5749 5747 5749 5750 5755 5755 5759 5760 5762 5766 5769 5772 5775 5778 5782 5785 5786 5790 5793 5795 5797 5800 5803 5807 5810 5812 5814 5815 5816 5816 5816 5814 5812 5811 5808 5805 5801 5797 5792 5788 5783 5778 5771 5765
5737 5740 5739 5741 5740 5743 5744 5744 5746 5748 5752 5754 5754 5755 5759 5762 5767 5770 5772 5777 5781 5784 5786 5789 5792 5794 5797 5800 5803 5807 5809 5812 5813 5814 5815 5814 5813 5811 5810 5808 5805 5801 5798 5793 5789 5785 5780 5774 5770
5728 5730 5731 5733 5733 5733 5737 5738 5740 5742 5747 5746 5749 5750 5754 5756 5760 5763 5766 5770 5774 5778 5782 5785 5788 5791 5794 5797 5800 5803 5807 5809 5811 5812 5813 5813 5812 5810 5809 5807 5804 5801 5798 5794 5790 5787 5782 5777 5773
5718 5720 5721 5722 5724 5724 5727 5732 5731 5734 5736 5737 5740 5743 5747 5750 5753 5757 5760 5764 5769 5773 5776 5780 5783 5786 5790 5793 5797 5800 5803 5806 5809 5810 5811 5811 5810 5809 5808 5806 5804 5801 5799 5795 5791 5788 5784 5780 5777
5708 5709 5710 5711 5712 5715 5717 5722 5721 5725 5726 5730 5731 5734 5738 5742 5746 5748 5753 5759 5763 5766 5769 5773 5778 5782 5786 5790 5793 5797 5800 5803 5806 5808 5809 5810 5809 5808 5807 5805 5803 5801 5798 5795 5792 5789 5785 5782 5779
5695 5697 5697 5696 5699 5702 5706 5713 5716 5715 5716 5721 5724 5727 5731 5736 5737 5743 5746 5749 5754 5759 5761 5766 5771 5776 5780 5785 5789 5792 5797 5800 5803 5805 5807 5808 5807 5806 5806 5804 5802 5800 5798 5795 5793 5790 5787 5784 5782
5681 5683 5685 5685 5685 5687 5694 5703 5704 5704 5708 5713 5717 5718 5721 5727 5731 5735 5738 5741 5745 5752 5757 5760 5764 5769 5774 5779 5784 5787 5791 5796 5799 5802 5804 5805 5805 5805 5805 5803 5801 5800 5797 5795 5793 5791 5788 5786 5784
5666 5667 5671 5673 5671 5672 5675 5689 5692 5695 5700 5704 5708 5713 5715 5722 5724 5726 5730 5734 5737 5743 5749 5754 5757 5761 5766 5771 5777 5782 5786 5791 5795 5798 5800 5802 5803 5803 5803 5802 5800 5799 5797 5795 5793 5791 5789 5786 5784
5650 5651 5654 5655 5658 5654 5662 5675 5677 5684 5689 5694 5697 5704 5705 5710 5717 5720 5723 5725 5728 5733 5740 5745 5751 5754 5759 5764 5770 5777 5782 5786 5790 5794 5796 5799 5800 5801 5801 5801 5799 5798 5797 5795 5793 5791 5789 5787 5784
5634 5635 5637 5638 5636 5640 5644 5656 5666 5670 5677 5683 5688 5694 5697 5699 5705 5709 5714 5716 5719 5723 5730 5735 5743 5748 5752 5758 5764 5770 5776 5779 5784 5788 5792 5795 5797 5798 5798 5799 5798 5796 5796 5794 5792 5791 5789 5787 5784
5621 5621 5622 5623 5624 5623 5624 5639 5653 5653 5663 5669 5675 5682 5688 5689 5693 5698 5702 5707 5710 5714 5721 5726 5734 5740 5744 5750 5756 5760 5765 5772 5778 5784 5788 5791 5793 5794 5795 5796 5796 5795 5794 5793 5791 5790 5788 5787 5785
5611 5610 5610 5610 5610 5609 5606 5618 5631 5635 5646 5654 5663 5670 5672 5676 5680 5684 5689 5694 5699 5705 5710 5716 5723 5731 5735 5741 5746 5752 5756 5766 5775 5781 5782 5785 5788 5790 5792 5793 5793 5792 5792 5791 5790 5789 5787 5786 5784
5603 5601 5599 5600 5596 5593 5593 5588 5613 5620 5632 5642 5646 5648 5656 5661 5665 5670 5674 5681 5688 5693 5697 5703 5711 5719 5725 5732 5738 5744 5751 5759 5766 5768 5773 5780 5783 5786 5788 5789 5790 5790 5789 5789 5788 5787 5786 5785 5784
5589 5588 5588 5587 5584 5577 5576 5572 5596 5606 5613 5624 5624 5627 5634 5642 5648 5655 5660 5665 5673 5678 5685 5692 5697 5707 5714 5723 5729 5735 5742 5749 5755 5761 5769 5774 5778 5781 5783 5785 5786 5787 5787 5787 5786 5785 5784 5784 5783
5574 5573 5572 5570 5567 5560 5560 5560 5573 5590 5589 5594 5602 5609 5615 5622 5630 5638 5645 5650 5657 5665 5672 5678 5686 5695 5703 5712 5719 5726 5733 5741 5746 5754 5763 5768 5771 5775 5778 5780 5782 5783 5783 5784 5784 5784 5783 5782 5781
5560 5556 5552 5550 5545 5540 5548 5540 5553 5570 5567 5566 5579 5592 5598 5603 5611 5620 5628 5634 5641 5650 5659 5666 5673 5683 5692 5700 5709 5717 5724 5731 5737 5745 5753 5759 5763 5769 5772 5774 5776 5778 5780 5781 5781 5781 5781 5780 5780
5545 5541 5534 5526 5522 5519 5526 5519 5533 5535 5544 5544 5555 5562 5569 5578 5588 5599 5609 5616 5624 5631 5641 5651 5661 5670 5680 5691 5698 5706 5714 5721 5727 5735 5744 5750 5755 5760 5764 5768 5771 5773 5775 5776 5778 5778 5778 5778 5777
5534 5527 5520 5511 5509 5501 5505 5502 5505 5511 5516 5522 5520 5521 5534 5546 5558 5570 5583 5595 5606 5617 5628 5637 5645 5654 5665 5678 5687 5695 5704 5711 5718 5726 5735 5741 5746 5752 5757 5761 5765 5768 5770 5772 5774 5775 5775 5775 5774
5521 5517 5513 5509 5501 5494 5493 5490 5489 5501 5497 5498 5502 5511 5519 5531 5545 5558 5569 5581 5589 5600 5610 5623 5635 5644 5653 5662 5674 5685 5693 5702 5708 5716 5725 5732 5738 5744 5750 5754 5758 5762 5764 5767 5769 5770 5771 5772 5772
5514 5509 5506 5502 5501 5493 5484 5486 5496 5489 5480 5480 5485 5488 5495 5506 5523 5537 5550 5564 5577 5586 5598 5612 5622 5632 5641 5651 5662 5673 5683 5691 5698 5707 5715 5722 5728 5735 5742 5747 5751 5755 5758 5761 5764 5766 5768 5768 5769
5508 5505 5500 5494 5496 5495 5485 5478 5484 5478 5474 5475 5478 5482 5483 5488 5501 5517 5531 5544 5560 5573 5586 5599 5610 5620 5630 5640 5648 5661 5670 5679 5688 5697 5705 5712 5719 5726 5733 5739 5743 5748 5753 5756 5759 5761 5763 5764 5766